TimeCST,TemperatureF,Dew PointF,Humidity,Sea Level PressureIn,VisibilityMPH,Wind Direction,Wind SpeedMPH,Gust SpeedMPH,PrecipitationIn,Events,Conditions,WindDirDegrees,DateUTC
12:01 AM,8.6,5.0,85,29.96,10.0,SSW,2.3,-,N/A,,Overcast,200,2013-12-25 06:01:00
12:21 AM,8.6,5.0,85,29.95,7.0,SSW,1.2,-,N/A,,Overcast,200,2013-12-25 06:21:00
12:41 AM,8.6,5.0,85,29.96,7.0,SSW,3.5,-,N/A,,Overcast,210,2013-12-25 06:41:00
1:21 AM,8.6,5.0,85,29.95,10.0,South,2.3,-,N/A,,Overcast,180,2013-12-25 07:21:00
3:01 AM,10.4,6.8,85,29.95,10.0,South,1.2,-,N/A,,Overcast,170,2013-12-25 09:01:00
3:21 AM,10.4,6.8,85,29.96,10.0,Calm,Calm,-,N/A,,Overcast,190,2013-12-25 09:21:00
4:01 AM,10.4,6.8,85,29.95,10.0,Calm,Calm,-,N/A,,Overcast,180,2013-12-25 10:01:00
4:28 AM,10.4,6.8,85,29.95,10.0,Calm,Calm,-,N/A,Snow,Light Snow,0,2013-12-25 10:28:00
4:34 AM,10.4,6.8,85,29.95,10.0,Calm,Calm,-,N/A,,Overcast,0,2013-12-25 10:34:00
4:54 AM,10.4,6.8,85,29.95,10.0,Calm,Calm,-,N/A,,Overcast,0,2013-12-25 10:54:00
5:14 AM,10.4,6.8,85,29.95,10.0,Calm,Calm,-,N/A,Snow,Light Snow,0,2013-12-25 11:14:00
5:34 AM,10.4,6.8,85,29.95,7.0,Calm,Calm,-,N/A,Snow,Light Snow,0,2013-12-25 11:34:00
5:54 AM,10.4,6.8,85,29.95,7.0,Calm,Calm,-,N/A,Snow,Light Snow,0,2013-12-25 11:54:00
6:14 AM,10.4,6.8,85,29.95,5.0,Calm,Calm,-,N/A,Snow,Light Snow,0,2013-12-25 12:14:00
6:34 AM,10.4,6.8,85,29.96,4.0,Calm,Calm,-,N/A,Snow,Light Snow,0,2013-12-25 12:34:00
6:54 AM,10.4,8.6,92,29.96,2.0,Calm,Calm,-,N/A,Snow,Light Snow,0,2013-12-25 12:54:00
7:14 AM,10.4,8.6,92,29.97,2.0,Calm,Calm,-,N/A,Snow,Light Snow,0,2013-12-25 13:14:00
7:34 AM,10.4,8.6,92,29.98,2.5,Calm,Calm,-,N/A,Snow,Light Snow,0,2013-12-25 13:34:00
7:54 AM,10.4,8.6,92,29.98,2.0,Calm,Calm,-,N/A,Snow,Light Snow,0,2013-12-25 13:54:00
8:14 AM,10.4,8.6,92,29.98,1.8,Calm,Calm,-,N/A,Snow,Light Snow,0,2013-12-25 14:14:00
8:34 AM,10.4,8.6,92,29.99,1.5,Calm,Calm,-,N/A,Snow,Light Snow,0,2013-12-25 14:34:00
8:54 AM,10.4,8.6,92,30.00,1.0,Calm,Calm,-,N/A,Snow,Light Snow,0,2013-12-25 14:54:00
9:14 AM,12.2,8.6,85,30.01,1.5,Calm,Calm,-,N/A,Snow,Light Snow,0,2013-12-25 15:14:00
9:34 AM,12.2,10.4,92,30.01,3.0,Calm,Calm,-,N/A,Snow,Light Snow,0,2013-12-25 15:34:00
9:54 AM,12.2,10.4,92,30.02,2.5,WNW,3.5,-,N/A,Snow,Light Snow,300,2013-12-25 15:54:00
10:14 AM,12.2,10.4,92,30.02,4.0,Calm,Calm,-,N/A,Snow,Light Snow,0,2013-12-25 16:14:00
10:34 AM,12.2,10.4,92,30.03,4.0,NW,6.9,-,N/A,Snow,Light Snow,310,2013-12-25 16:34:00
10:54 AM,12.2,8.6,85,30.03,5.0,WNW,5.8,-,N/A,Snow,Light Snow,300,2013-12-25 16:54:00
11:14 AM,12.2,8.6,85,30.02,10.0,WNW,8.1,-,N/A,,Overcast,300,2013-12-25 17:14:00
11:34 AM,14.0,8.6,79,30.03,7.0,WNW,8.1,-,N/A,Snow,Light Snow,290,2013-12-25 17:34:00
11:54 AM,14.0,8.6,79,30.02,10.0,West,10.4,17.3,N/A,,Mostly Cloudy,280,2013-12-25 17:54:00
12:14 PM,12.2,6.8,79,30.03,10.0,WNW,17.3,21.9,N/A,,Overcast,290,2013-12-25 18:14:00
12:34 PM,12.2,5.0,73,30.03,10.0,WNW,15.0,23.0,N/A,,Overcast,290,2013-12-25 18:34:00
12:54 PM,12.2,3.2,67,30.03,10.0,West,15.0,21.9,N/A,,Overcast,270,2013-12-25 18:54:00
1:14 PM,10.4,3.2,73,30.03,10.0,West,12.7,20.7,N/A,,Overcast,280,2013-12-25 19:14:00
1:34 PM,10.4,3.2,73,30.03,10.0,WNW,13.8,-,N/A,,Overcast,290,2013-12-25 19:34:00
1:54 PM,10.4,3.2,73,30.03,10.0,West,13.8,21.9,N/A,,Overcast,280,2013-12-25 19:54:00
2:14 PM,10.4,3.2,73,30.03,10.0,West,12.7,19.6,N/A,,Overcast,270,2013-12-25 20:14:00
2:34 PM,8.6,1.4,73,30.03,10.0,West,13.8,-,N/A,,Overcast,280,2013-12-25 20:34:00
2:54 PM,8.6,1.4,73,30.03,10.0,West,11.5,18.4,N/A,,Overcast,280,2013-12-25 20:54:00
3:14 PM,8.6,1.4,73,30.03,10.0,West,13.8,18.4,N/A,,Mostly Cloudy,280,2013-12-25 21:14:00
3:34 PM,6.8,-0.4,72,30.04,10.0,West,12.7,18.4,N/A,,Clear,270,2013-12-25 21:34:00
3:54 PM,6.8,-0.4,72,30.04,10.0,West,11.5,-,N/A,,Clear,270,2013-12-25 21:54:00
4:14 PM,5.0,-0.4,78,30.05,10.0,West,10.4,-,N/A,,Clear,280,2013-12-25 22:14:00
4:34 PM,5.0,-0.4,78,30.06,10.0,West,9.2,-,N/A,,Scattered Clouds,280,2013-12-25 22:34:00
4:54 PM,3.2,-2.2,78,30.06,10.0,West,5.8,-,N/A,,Scattered Clouds,280,2013-12-25 22:54:00
5:14 PM,3.2,-2.2,78,30.05,10.0,West,8.1,-,N/A,,Mostly Cloudy,270,2013-12-25 23:14:00
5:34 PM,3.2,-2.2,78,30.05,10.0,West,4.6,-,N/A,,Overcast,260,2013-12-25 23:34:00
5:54 PM,3.2,-0.4,85,30.05,10.0,West,4.6,-,N/A,,Overcast,270,2013-12-25 23:54:00
6:14 PM,5.0,-0.4,78,30.05,10.0,West,3.5,-,N/A,,Mostly Cloudy,260,2013-12-26 00:14:00
6:34 PM,3.2,-0.4,85,30.04,10.0,West,5.8,-,N/A,,Mostly Cloudy,280,2013-12-26 00:34:00
6:54 PM,3.2,-2.2,78,30.04,10.0,Calm,Calm,-,N/A,,Mostly Cloudy,0,2013-12-26 00:54:00
7:14 PM,1.4,-2.2,85,30.04,10.0,Calm,Calm,-,N/A,,Overcast,0,2013-12-26 01:14:00
7:34 PM,1.4,-2.2,85,30.04,10.0,Calm,Calm,-,N/A,,Overcast,0,2013-12-26 01:34:00
7:54 PM,1.4,-2.2,85,30.05,10.0,West,4.6,-,N/A,,Mostly Cloudy,260,2013-12-26 01:54:00
8:14 PM,1.4,-2.2,85,30.04,10.0,WNW,3.5,-,N/A,,Mostly Cloudy,290,2013-12-26 02:14:00
8:34 PM,1.4,-2.2,85,30.04,10.0,West,3.5,-,N/A,,Overcast,270,2013-12-26 02:34:00
8:54 PM,1.4,-2.2,85,30.03,10.0,Calm,Calm,-,N/A,,Overcast,0,2013-12-26 02:54:00
9:14 PM,1.4,-2.2,85,30.04,10.0,Calm,Calm,-,N/A,,Overcast,0,2013-12-26 03:14:00
9:34 PM,3.2,-0.4,85,30.03,10.0,Calm,Calm,-,N/A,,Overcast,0,2013-12-26 03:34:00
9:54 PM,3.2,-0.4,85,30.02,5.0,Calm,Calm,-,N/A,Snow,Light Snow,0,2013-12-26 03:54:00
10:14 PM,3.2,-0.4,85,30.03,10.0,Calm,Calm,-,N/A,Snow,Light Snow,0,2013-12-26 04:14:00
10:34 PM,3.2,1.4,92,30.03,10.0,Calm,Calm,-,N/A,,Overcast,0,2013-12-26 04:34:00
10:54 PM,3.2,-0.4,85,30.03,10.0,Calm,Calm,-,N/A,,Mostly Cloudy,0,2013-12-26 04:54:00
11:14 PM,-0.4,-5.8,78,30.02,10.0,Calm,Calm,-,N/A,,Scattered Clouds,0,2013-12-26 05:14:00
11:34 PM,-2.2,-5.8,85,30.03,10.0,Calm,Calm,-,N/A,,Clear,0,2013-12-26 05:34:00
11:54 PM,-7.6,-11.2,84,30.03,10.0,Calm,Calm,-,N/A,,Clear,0,2013-12-26 05:54:00